Ljubljana Jože Pučnik Airport

Jump to: basic info | weather | frequencies | runways | comments

Related pages: nearby airports | nearby navaids | notams | map

Basic information (top)

Codes: LJU LJLJ
Location: lon 46.223701, lat 14.457600, elev 1,273 ft / 388 m msl
Status: large_airport
Scheduled airline service: yes
Links: Wikipedia Mobile

Weather (top)

Current conditions (rec'd 2015/01/26 16:00Z):

LJLJ 261600Z 17003KT 9999 FEW030 SCT037 02/M04 Q1021 NOSIG

Airport forecast (rec'd 2015/01/26 15:06Z):

TAF LJLJ 261400Z 2615/2715 VRB02KT 9999 FEW040 
      TEMPO 2615/2616 16005KT PROB30 2618/2706 VRB02KT 6000 BKN035

Frequencies (top)

Verify before use: may be inaccurate or out of date.

A/D: 135.275 MHz (APP)
ATIS: 128.175 MHz (also on VOR DOL 112.700)
GND: 121.625 MHz ()
HANDLING & GA: 131.4 MHz ()
TWR: 118 MHz (TWR)

Runways (top)

13/31: 10,827 x 148 ft (3,300 x 45 m) — paved — lighted

Latest comments (top)

I wish more were like that: It's small, it's cosy, it's convenient. ... [read]

an experience: I too managed to land here from ... [read]

Small airport without hassles: Managed to land here in a snowstorm in ... [read]

More... (top)

See also NOTAMs and nearby airports and navaids, or visit the Ljubljana Jože Pučnik Airport page at the main OurAirports website..